Wadena, MN

7:26 AM CDT on May 28, 2017 (GMT -0500)
Wadena Municipal

Weather History for KADC - November, 2011

Change the Weather History Date:

Saturday, November 12, 2011

  Actual Average Record
Temperature  
Mean Temperature 38 °F -  
Max Temperature 55 °F 34 °F 64 °F (1941)
Min Temperature 21 °F 17 °F -5 °F (1986)
Degree Days  
Heating Degree Days 27    
Moisture  
Dew Point 24 °F    
Average Humidity 57    
Maximum Humidity 93    
Minimum Humidity 31    
Precipitation  
Precipitation 0.00 in - - ()
Sea Level Pressure  
Sea Level Pressure 29.34 in    
Wind  
Wind Speed 5 mph (SSE)    
Max Wind Speed 15 mph    
Max Gust Speed 23 mph    
Visibility 10 miles    
Events      
Averages and records for this station are not official NWS values.
T = Trace of Precipitation, MM = Missing Value Source: NWS Daily Summary

Daily Weather History Graph

Daily Weather History Graph

Search for Another Location

Airport or City:

Trip Planner

Search our weather history database for the weather conditions in past years. The results will help you decide how hot, cold, wet, or windy it might be!

Date:

Astronomy

Nov. 12, 2011 Rise Set
Actual Time 7:17 AM CST 4:51 PM CST
Civil Twilight 6:45 AM CST 5:23 PM CST
Nautical Twilight 6:09 AM CST 6:00 PM CST
Astronomical Twilight 5:33 AM CST 6:35 PM CST
Moon 6:01 PM CST (11/12) 9:07 AM CST (11/12)
Length of Visible Light 10h 38m
Length of Day
9h 33m
Full, 97% of the Moon is Illuminated
Nov 12
Full
Nov 18
Last Quarter
Nov 25
New
Dec 2
First Quarter
Dec 10
Full

Hourly Weather History & Observations

Time (CST) Temp. Windchill Dew Point Humidity Pressure Visibility Wind Dir Wind Speed Gust Speed Precip Events Conditions
12:14 AM 32.0 °F 27.5 °F 24.8 °F 75% 29.49 in 10.0 mi SSW 4.6 mph - N/A   Clear
12:35 AM 28.4 °F - 23.0 °F 80% 29.49 in 10.0 mi Calm Calm - N/A   Clear
12:52 AM 26.6 °F - 21.2 °F 80% 29.49 in 10.0 mi Calm Calm - N/A   Clear
1:15 AM 28.4 °F - 21.2 °F 74% 29.49 in 10.0 mi Calm Calm - N/A   Clear
1:34 AM 26.6 °F - 21.2 °F 80% 29.48 in 10.0 mi Calm Calm - N/A   Clear
1:53 AM 26.6 °F 22.6 °F 21.2 °F 80% 29.48 in 10.0 mi SSE 3.5 mph - N/A   Clear
2:15 AM 28.4 °F 23.3 °F 23.0 °F 80% 29.48 in 10.0 mi South 4.6 mph - N/A   Clear
2:35 AM 26.6 °F 20.0 °F 21.2 °F 80% 29.48 in 10.0 mi SSW 5.8 mph - N/A   Clear
2:52 AM 28.4 °F 23.3 °F 23.0 °F 80% 29.47 in 10.0 mi South 4.6 mph - N/A   Clear
3:15 AM 28.4 °F - 23.0 °F 80% 29.46 in 10.0 mi Calm Calm - N/A   Clear
3:53 AM 28.4 °F 24.6 °F 21.2 °F 74% 29.46 in 10.0 mi South 3.5 mph - N/A   Clear
4:15 AM 28.4 °F 22.2 °F 21.2 °F 74% 29.45 in 10.0 mi SSE 5.8 mph - N/A   Clear
4:34 AM 28.4 °F 24.6 °F 21.2 °F 74% 29.45 in 10.0 mi SSE 3.5 mph - N/A   Clear
4:53 AM 30.2 °F - 21.2 °F 69% 29.44 in 10.0 mi Calm Calm - N/A   Clear
5:15 AM 28.4 °F 22.2 °F 21.2 °F 74% 29.44 in 10.0 mi South 5.8 mph - N/A   Clear
5:34 AM 28.4 °F 24.6 °F 21.2 °F 74% 29.44 in 10.0 mi South 3.5 mph - N/A   Clear
5:53 AM 28.4 °F - 21.2 °F 74% 29.43 in 10.0 mi Calm Calm - N/A   Clear
6:15 AM 26.6 °F - 21.2 °F 80% 29.42 in 10.0 mi Calm Calm - N/A   Clear
6:34 AM 21.2 °F - 19.4 °F 93% 29.42 in 10.0 mi Calm Calm - N/A   Clear
6:53 AM 21.2 °F - 17.6 °F 86% 29.42 in 10.0 mi Calm Calm - N/A   Clear
7:15 AM 21.2 °F - 17.6 °F 86% 29.42 in 10.0 mi Calm Calm - N/A   Clear
7:34 AM 21.2 °F - 17.6 °F 86% 29.42 in 10.0 mi Calm Calm - N/A   Clear
7:53 AM 21.2 °F 14.9 °F 19.4 °F 93% 29.41 in 10.0 mi SE 4.6 mph - N/A   Clear
8:15 AM 26.6 °F - 21.2 °F 80% 29.41 in 10.0 mi Calm Calm - N/A   Clear
8:34 AM 30.2 °F - 24.8 °F 80% 29.41 in 10.0 mi Calm Calm - N/A   Clear
8:53 AM 32.0 °F 28.7 °F 24.8 °F 75% 29.40 in 10.0 mi SE 3.5 mph - N/A   Clear
9:15 AM 35.6 °F - 26.6 °F 70% 29.39 in 10.0 mi Calm Calm - N/A   Clear
9:34 AM 35.6 °F 32.8 °F 26.6 °F 70% 29.38 in 10.0 mi ESE 3.5 mph - N/A   Clear
9:53 AM 39.2 °F 35.0 °F 28.4 °F 65% 29.38 in 10.0 mi SE 5.8 mph - N/A   Clear
10:15 AM 44.6 °F 43.1 °F 26.6 °F 49% 29.38 in 10.0 mi SE 3.5 mph - N/A   Clear
10:34 AM 48.2 °F - 26.6 °F 43% 29.38 in 10.0 mi SSE 6.9 mph - N/A   Clear
10:53 AM 48.2 °F - 26.6 °F 43% 29.38 in 10.0 mi SSE 9.2 mph - N/A   Clear
11:14 AM 50.0 °F - 24.8 °F 37% 29.36 in 10.0 mi SSE 8.1 mph - N/A   Clear
11:34 AM 51.8 °F - 24.8 °F 35% 29.36 in 10.0 mi SSE 9.2 mph - N/A   Clear
11:53 AM 51.8 °F - 24.8 °F 35% 29.35 in 10.0 mi SSE 9.2 mph - N/A   Clear
12:14 PM 50.0 °F - 24.8 °F 37% 29.33 in 10.0 mi SE 9.2 mph - N/A   Clear
12:35 PM 51.8 °F - 24.8 °F 35% 29.32 in 10.0 mi SSE 10.4 mph - N/A   Clear
12:52 PM 51.8 °F - 26.6 °F 38% 29.31 in 10.0 mi SE 8.1 mph - N/A   Clear
1:15 PM 51.8 °F - 26.6 °F 38% 29.32 in 10.0 mi SSE 10.4 mph - N/A   Clear
1:34 PM 55.4 °F - 26.6 °F 33% 29.29 in 10.0 mi SSE 9.2 mph - N/A   Clear
1:53 PM 53.6 °F - 24.8 °F 33% 29.27 in 10.0 mi SE 8.1 mph - N/A   Clear
2:15 PM 55.4 °F - 24.8 °F 31% 29.26 in 10.0 mi SE 10.4 mph - N/A   Clear
2:34 PM 53.6 °F - 26.6 °F 35% 29.25 in 10.0 mi SE 8.1 mph - N/A   Clear
2:53 PM 53.6 °F - 26.6 °F 35% 29.24 in 10.0 mi SE 8.1 mph - N/A   Clear
3:15 PM 55.4 °F - 24.8 °F 31% 29.23 in 10.0 mi SSE 12.7 mph - N/A   Clear
3:34 PM 53.6 °F - 24.8 °F 33% 29.22 in 10.0 mi SE 9.2 mph 17.3 mph N/A   Clear
3:53 PM 53.6 °F - 24.8 °F 33% 29.21 in 10.0 mi SE 8.1 mph - N/A   Clear
4:15 PM 51.8 °F - 24.8 °F 35% 29.20 in 10.0 mi SSE 9.2 mph - N/A   Clear
4:34 PM 51.8 °F - 24.8 °F 35% 29.20 in 10.0 mi SSE 8.1 mph - N/A   Clear
4:53 PM 50.0 °F - 24.8 °F 37% 29.20 in 10.0 mi SSE 9.2 mph - N/A   Clear
5:15 PM 51.8 °F - 24.8 °F 35% 29.19 in 10.0 mi South 15.0 mph 23.0 mph N/A   Clear
5:34 PM 51.8 °F - 24.8 °F 35% 29.18 in 10.0 mi South 11.5 mph 21.9 mph N/A   Clear
5:53 PM 51.8 °F - 24.8 °F 35% 29.17 in 10.0 mi South 12.7 mph - N/A   Clear
6:15 PM 48.2 °F - 24.8 °F 40% 29.18 in 10.0 mi South 10.4 mph - N/A   Clear
6:35 PM 48.2 °F - 26.6 °F 43% 29.18 in 10.0 mi South 10.4 mph - N/A   Clear
6:53 PM 48.2 °F - 26.6 °F 43% 29.17 in 10.0 mi South 11.5 mph - N/A   Clear
7:14 PM 48.2 °F - 26.6 °F 43% 29.16 in 10.0 mi South 13.8 mph - N/A   Clear
7:35 PM 46.4 °F 41.1 °F 26.6 °F 46% 29.15 in 10.0 mi South 11.5 mph 18.4 mph N/A   Clear
7:52 PM 46.4 °F 41.9 °F 26.6 °F 46% 29.15 in 10.0 mi South 9.2 mph - N/A   Clear
8:15 PM 46.4 °F 40.7 °F 28.4 °F 50% 29.15 in 10.0 mi South 12.7 mph 20.7 mph N/A   Clear
8:34 PM 44.6 °F 39.2 °F 28.4 °F 53% 29.15 in 10.0 mi South 10.4 mph - N/A   Clear
8:53 PM 44.6 °F 40.7 °F 28.4 °F 53% 29.14 in 10.0 mi SSW 6.9 mph - N/A   Clear
9:34 PM 41.0 °F 37.1 °F 28.4 °F 61% 29.13 in 10.0 mi South 5.8 mph - N/A   Clear
9:53 PM 39.2 °F 35.0 °F 28.4 °F 65% 29.13 in 10.0 mi South 5.8 mph - N/A   Clear
10:15 PM 39.2 °F 37.0 °F 26.6 °F 61% 29.12 in 10.0 mi South 3.5 mph - N/A   Clear
10:34 PM 37.4 °F 34.9 °F 26.6 °F 65% 29.11 in 10.0 mi South 3.5 mph - N/A   Clear
10:53 PM 37.4 °F 33.8 °F 26.6 °F 65% 29.11 in 10.0 mi South 4.6 mph - N/A   Clear
11:15 PM 35.6 °F 32.8 °F 26.6 °F 70% 29.11 in 10.0 mi SW 3.5 mph - N/A   Clear
11:35 PM 37.4 °F 32.8 °F 26.6 °F 65% 29.11 in 10.0 mi SW 5.8 mph - N/A   Clear
11:53 PM 39.2 °F 35.0 °F 26.6 °F 61% 29.11 in 10.0 mi WSW 5.8 mph - N/A   Clear